登录
首页 » Python » 代码《Python 3反爬虫原理与绕过实战》

代码《Python 3反爬虫原理与绕过实战》

于 2021-03-25 发布
0 316
下载积分: 1 下载次数: 1

代码说明:

说明:  《Python3反爬虫原理与绕过实战》随书源码,不错的资源哦("Python 3 anti crawler principle and bypass the actual combat" with the book source code, a good resource Oh)

文件列表:

antispider-master, 0 , 2019-10-10
antispider-master\.DS_Store, 6148 , 2019-10-10
antispider-master\.idea, 0 , 2019-10-10
antispider-master\.idea\antispider.iml, 453 , 2019-10-10
antispider-master\.idea\misc.xml, 203 , 2019-10-10
antispider-master\.idea\modules.xml, 272 , 2019-10-10
antispider-master\.idea\vcs.xml, 180 , 2019-10-10
antispider-master\.idea\workspace.xml, 49913 , 2019-10-10
antispider-master\02, 0 , 2019-10-10
antispider-master\02\2-3, 0 , 2019-10-10
antispider-master\02\2-3\__init__.py, 0 , 2019-10-10
antispider-master\02\2-3\websocket.py, 1253 , 2019-10-10
antispider-master\04, 0 , 2019-10-10
antispider-master\04\4-1, 0 , 2019-10-10
antispider-master\04\4-1\4-1-1-one.py, 512 , 2019-10-10
antispider-master\04\4-1\4-1-1-two.py, 638 , 2019-10-10
antispider-master\04\4-1\__init__.py, 0 , 2019-10-10
antispider-master\04\4-2, 0 , 2019-10-10
antispider-master\04\4-2\4-2-1-one.py, 549 , 2019-10-10
antispider-master\04\4-2\4-2-1-two.py, 618 , 2019-10-10
antispider-master\04\4-2\__init__.py, 0 , 2019-10-10
antispider-master\04\4-2\fet.js, 983 , 2019-10-10
antispider-master\04\4-3, 0 , 2019-10-10
antispider-master\04\4-3\4-3-1-one.py, 864 , 2019-10-10
antispider-master\04\4-3\4-3-2, 0 , 2019-10-10
antispider-master\04\4-3\4-3-2\4-3-2-one.py, 3535 , 2019-10-10
antispider-master\04\4-3\4-3-2\__init__.py, 0 , 2019-10-10
antispider-master\04\4-3\4-3-2\static, 0 , 2019-10-10
antispider-master\04\4-3\4-3-2\static\md5.js, 8827 , 2019-10-10
antispider-master\04\4-3\4-3-2\static\sign.js, 960 , 2019-10-10
antispider-master\04\4-3\4-3-2\template, 0 , 2019-10-10
antispider-master\04\4-3\4-3-2\template\index.html, 4493 , 2019-10-10
antispider-master\04\4-3\__init__.py, 0 , 2019-10-10
antispider-master\04\4-3\sign.js, 1087 , 2019-10-10
antispider-master\04\4-4, 0 , 2019-10-10
antispider-master\04\4-4\__init__.py, 0 , 2019-10-10
antispider-master\04\4-4\client.py, 1544 , 2019-10-10
antispider-master\04\4-4\server.py, 1855 , 2019-10-10
antispider-master\04\4-5, 0 , 2019-10-10
antispider-master\04\4-5\__init__.py, 0 , 2019-10-10
antispider-master\04\4-5\client.py, 2131 , 2019-10-10
antispider-master\04\4-5\server.py, 3010 , 2019-10-10
antispider-master\04\__init__.py, 0 , 2019-10-10
antispider-master\05, 0 , 2019-10-10
antispider-master\05\5-2, 0 , 2019-10-10
antispider-master\05\5-2\5-2-1-one.py, 180 , 2019-10-10
antispider-master\05\5-2\5-2-1-three.py, 471 , 2019-10-10
antispider-master\05\5-2\5-2-1-two.py, 435 , 2019-10-10
antispider-master\05\5-2\5-2-2-one.py, 419 , 2019-10-10
antispider-master\05\5-2\5-2-2-two.py, 633 , 2019-10-10
antispider-master\05\5-2\5-2-3-one.py, 695 , 2019-10-10
antispider-master\05\5-2\5-2-5-one.py, 291 , 2019-10-10
antispider-master\05\5-2\5-2-5-two.py, 545 , 2019-10-10
antispider-master\05\5-2\__init__.py, 0 , 2019-10-10
antispider-master\05\5-2\ituring.png, 201153 , 2019-10-10
antispider-master\06, 0 , 2019-10-10
antispider-master\06\6-1, 0 , 2019-10-10
antispider-master\06\6-1\6-1-1-one.py, 315 , 2019-10-10
antispider-master\06\6-1\6-1-1-two.py, 767 , 2019-10-10
antispider-master\06\6-1\__init__.py, 0 , 2019-10-10
antispider-master\06\6-2, 0 , 2019-10-10
antispider-master\06\6-2\6-2-1-one.py, 1429 , 2019-10-10
antispider-master\06\6-2\__init__.py, 0 , 2019-10-10
antispider-master\06\6-3, 0 , 2019-10-10
antispider-master\06\6-3\6-3-1-one.py, 320 , 2019-10-10
antispider-master\06\6-3\6-3-1-two.py, 460 , 2019-10-10
antispider-master\06\6-3\6-3-3-one.py, 855 , 2019-10-10
antispider-master\06\6-3\__init__.py, 0 , 2019-10-10
antispider-master\06\6-4, 0 , 2019-10-10
antispider-master\06\6-4\6-4-2-one.py, 151 , 2019-10-10
antispider-master\06\6-4\6-4-2-two.py, 2543 , 2019-10-10
antispider-master\06\6-4\__init__.py, 0 , 2019-10-10
antispider-master\06\6-4\movie.woff, 2076 , 2019-10-10
antispider-master\06\6-4\target.woff, 2076 , 2019-10-10
antispider-master\06\6-5, 0 , 2019-10-10
antispider-master\06\6-5\6-5-1-one.py, 1223 , 2019-10-10
antispider-master\06\6-5\6-5-2-one.py, 82 , 2019-10-10
antispider-master\06\6-5\__init__.py, 0 , 2019-10-10
antispider-master\06\6-5\ganrao.png, 4594 , 2019-10-10
antispider-master\06\6-5\total.png, 2588 , 2019-10-10
antispider-master\07, 0 , 2019-10-10
antispider-master\07\7-1, 0 , 2019-10-10
antispider-master\07\7-1\7-1-1-one.py, 389 , 2019-10-10
antispider-master\07\7-1\7-1-1-two.py, 479 , 2019-10-10
antispider-master\07\7-1\7-1-3-one.py, 594 , 2019-10-10
antispider-master\07\7-1\__init__.py, 0 , 2019-10-10
antispider-master\07\7-1\webdriver.png, 52296 , 2019-10-10
antispider-master\07\7-2, 0 , 2019-10-10
antispider-master\07\7-2\7-2-1-one.py, 384 , 2019-10-10
antispider-master\07\7-2\__init__.py, 0 , 2019-10-10
antispider-master\07\7-2\browser.png, 111363 , 2019-10-10
antispider-master\07\7-3, 0 , 2019-10-10
antispider-master\07\7-3\7-3-1-one.py, 133 , 2019-10-10
antispider-master\07\7-3\7-3-1-two.py, 163 , 2019-10-10
antispider-master\07\7-3\7-3-2-one.py, 128 , 2019-10-10
antispider-master\07\7-3\__init__.py, 0 , 2019-10-10
antispider-master\07\7-4, 0 , 2019-10-10
antispider-master\07\7-4\7-4-1-one.py, 480 , 2019-10-10
antispider-master\07\7-4\__init__.py, 0 , 2019-10-10
antispider-master\07\7-4\hidden.py, 1790 , 2019-10-10

下载说明:请别用迅雷下载,失败请重下,重下不扣分!

发表评论

0 个回复

  • gpt2w
    gpt2w5模型代码 通过更改参数可得到对流层延迟量值 MATLAB(gpt2w5 model code MATLAB Tropospheric delay can be obtained by changing parameters)
    2020-12-25 19:19:03下载
    积分:1
  • 捕获器
    身体还是突然就合适就很少听人家说今天人竟然同时(wjtjherjttklgukrfykt)
    2020-06-19 17:00:01下载
    积分:1
  • style
    :好风格应该成为一种习惯。如果你在开始写代码时就关心风格问 题,如果你花时间去审视和改进它,你将会逐渐养成一种好的编程习惯。一旦这种习惯变成 自动的东西,你的潜意识就会帮你照料许多细节问题,甚至你在工作压力下写出的代码也会 更好。(: Good style should become a habit. If you write code at the beginning when the issue of concern for style, if you take the time to examine and improve it, you will gradually develop a good programming practice. Once this habit becomes automatic things, your subconscious will help you take care of many details, and even under the pressure of your work will be better to write code.)
    2008-07-21 15:42:50下载
    积分:1
  • Acprotect1.10 Build123之VB语言篇.chm
    Acprotect1.10 Build123之VB语言篇.chm-Acprotect1.10 Build123 the VB language articles. Chm
    2022-03-23 23:40:02下载
    积分:1
  • VB游戏编程,它可以对爱好编游戏的爱好者提供一定的帮助和认识。也可以作为对VB的认识。谢谢 ...
    VB游戏编程,它可以对爱好编游戏的爱好者提供一定的帮助和认识。也可以作为对VB的认识。谢谢 -VB game programming, it can right-loving part of the game to provide some help and understanding. I can understand the VB. Thank you!
    2022-02-09 13:20:06下载
    积分:1
  • 显示进度条的VB异步下载实例
    显示进度条的VB异步下载实例,在获取下载任务后,用ListView列表显示当前任务,使用了Subclass.ocx控件的下载程序示例,本实例虽是一个下载程序,但可学习到不少实用的知识技巧,比如网络下载的实现、ListView控件的使用、进度条的实现等。
    2022-03-20 03:25:31下载
    积分:1
  • Continuous trend of power system procedures, can calculate the maximum transmiss...
    电力系统连续潮流程序,可以计算电力系统最大输电能力-Continuous trend of power system procedures, can calculate the maximum transmission capacity of power system
    2022-07-20 01:19:56下载
    积分:1
  • c-sorting-algorithms-master (1)
    说明:  several sorting algorthms
    2019-06-15 07:00:42下载
    积分:1
  • Graphene_Cond
    通过matlab实现THz下石墨烯电导率的计算(Calculation of conductivity of graphene under THz by MATLAB)
    2021-04-23 09:48:48下载
    积分:1
  • 花环的Josephu问题解决
    The Josephu wreath problem solves-The problem solves wreath Josephu
    2023-04-11 11:00:03下载
    积分:1
  • 696516资源总数
  • 106914会员总数
  • 0今日下载